Regional Weather Roundup
Issued by NWS Kansas City/Pleasant Hill, MO

Home | Current Version | Previous Version | Graphics & Text | Print | Product List | Glossary Off
Versions: 1 2 3 4 5 6 7 8 9 10 11 12 13 14 15 16 17 18 19 20 21 22 23 24 25 26 27 28 29 30 31 32 33 34 35 36 37 38 39 40 41 42 43 44 45 46 47 48 49 50

000
ASUS43 KEAX 300604
RWREAX

WEATHER ROUNDUP FOR EASTERN KANSAS AND NORTHWEST MISSOURI
NATIONAL WEATHER SERVICE KANSAS CITY/PLEASANT HILL MO
100 AM CDT TUE JUN 30 2015

KSZ040-057-103>105-MOZ028-029-037-043-300700-
...KANSAS CITY METROPOLITAN AREA...

CITY           SKY/WX    TMP DP  RH WIND       PRES   REMARKS
K.C. INTL      MOCLDY    71  65  81 W3        29.94R
6HR MIN TEMP:  70; 6HR MAX TEMP:  82;

K.C. DOWNTOWN  CLEAR     73  69  87 CALM      29.92S
6HR MIN TEMP:  73; 6HR MAX TEMP:  86; 6HR PCP: TRACE;

LEES SUMMIT    MOCLDY    73  64  73 SW3       29.94S
6HR MIN TEMP:  72; 6HR MAX TEMP:  82;

OLATHE - IXD   CLEAR     71  65  81 CALM      29.95S
6HR MIN TEMP:  71; 6HR MAX TEMP:  83;

OLATHE - OJC   CLEAR     70  65  84 CALM      29.94S
6HR MIN TEMP:  69; 6HR MAX TEMP:  83;

LAWRENCE       PTCLDY    67  64  90 CALM      29.94R

$$

MOZ001>008-011>017-020>025-030>033-038>040-044>046-053-054-300700-
...NORTHERN AND CENTRAL MISSOURI...

CITY           SKY/WX    TMP DP  RH WIND       PRES   REMARKS
ST. JOSEPH     CLEAR     70  68  93 CALM      29.92S
6HR MIN TEMP:  70; 6HR MAX TEMP:  84;

MOSBY          PTCLDY    70  68  94 CALM      29.92S
HARRISONVILLE  CLEAR     70  68  94 CALM      29.97R
WHITEMAN AFB   CLEAR     72  67  84 CALM      29.92S
6HR MIN TEMP:  71; 6HR MAX TEMP:  83;

CLINTON        MOCLDY    73  70  88 SW3       29.94S
SEDALIA        PTCLDY    73  65  75 W3        29.94S
6HR MIN TEMP:  73; 6HR MAX TEMP:  82;

WARSAW         NOT AVBL
CHILLICOTHE      N/A     68  66  93 CALM      29.92S
6HR MIN TEMP:  68; 6HR MAX TEMP:  82;

KIRKSVILLE     CLEAR     66  63  90 W5        29.90F
6HR MIN TEMP:  66; 6HR MAX TEMP:  78; 6HR PCP: TRACE;


$$

MOZ041-047>049-056>058-063>065-088>090-097-300700-
...EASTERN AND SOUTHERN MISSOURI...

CITY           SKY/WX    TMP DP  RH WIND       PRES   REMARKS
ST. LOUIS INTL PTCLDY    73  67  81 S5        29.89R
6HR MIN TEMP:  73; 6HR MAX TEMP:  84; 6HR PCP:  0.02;

SPIRIT OF STL  CLEAR     69  68  96 CALM      29.88R
COLUMBIA       CLEAR     71  67  87 W5        29.92R
JEFFERSON CITY CLEAR     71  67  87 CALM      29.91R
MEXICO         CLEAR    N/A N/A N/A W5        29.91R
ROLLA          CLEAR     69  65  86 W6        29.93R
OSAGE BEACH    PTCLDY    68  64  88 CALM      29.94R
SPRINGFIELD    CLEAR     70  64  81 SW7       29.97S
BRANSON        CLOUDY    70  64  83 CALM      29.99F
NEVADA         CLEAR     72  66  83 SW5       29.96S
JOPLIN         CLEAR     70  64  81 S3        29.97S
WEST PLAINS    CLEAR     68  64  87 W3        29.97S
MALDEN         CLEAR     75  68  78 CALM      29.91R

$$

IAZ060-094-KSZ022-034>040-054-083-096-NEZ052-066-093-300700-
...KANSAS...SOUTHEAST NEBRASKA AND IOWA...

CITY           SKY/WX    TMP DP  RH WIND       PRES   REMARKS
TOPEKA         CLEAR     71  67  87 CALM      29.94S
6HR MIN TEMP:  70; 6HR MAX TEMP:  85;

MANHATTAN      CLEAR     66  63  90 CALM      29.96R
EMPORIA        PTCLDY    65  60  84 SW6       29.97R
CHANUTE        CLEAR     66  63  90 S6        29.97R
WICHITA        PTCLDY    70  60  70 SW6       29.99R
OMAHA          CLOUDY    70  63  78 CALM      29.92R
LINCOLN        CLEAR     68  64  87 CALM      29.95S
FALLS CITY     PTCLDY    69  65  86 CALM      29.92F
LAMONI         CLEAR     71  62  73 W5        29.90F
DES MOINES     CLOUDY    70  63  78 W5        29.86F

$$




USA.gov is the U.S. government's official web portal to all federal, state and local government web resources and services.